User: anonymous   Login
Location: Le Petit-Vavre
(46.5081°N, 1.5239°E)
Time: 22:46:54
(UTC+00:00)
Language:

Helios 1A Rocket - Orbit

View from above orbital plane
View from above orbital plane
View from above satellite
View from above satellite

Ground track
Ground track

The orbit data is extracted from the following two-line orbital elements,

1 23608U 95033D   21127.87247224 -.00000115  00000-0 -40380-5 0  9997
2 23608  98.2967 165.8592 0014857 248.0309 111.9332 14.97672799399999
Epoch (UTC): 07 May 2021 20:56:21
Eccentricity: 0.0014857
inclination: 98.2967°
perigee height: 564 km
apogee height: 584 km
right ascension of ascending node: 165.8592°
argument of perigee: 248.0309°
revolutions per day: 14.97672799
mean anomaly at epoch: 111.9332°
orbit number at epoch: 39999

The dashed part of the orbit path shows where the satellite is in the earth's shadow,  

DLR